OBJECT A

Satellite information

Favourite Embed

Satellite Type and Status

UNKNOWNIN ORBIT

Key statistics

Satellite OBJECT A at a glance.

Uptime

2185

Days in orbit

Revolutions

≈ 14.9

Per day

Orbit

SSO

Sun Synchronous Orbit

Inclination

97.8

Latest

Satellite identification and parameters

Extended collection of information and parameters for OBJECT A.

Object identification

Identified? True

Debris? False

Object name: OBJECT A

International designator: 2019-093A

Object number (NORAD): 44879

Object ID (CCSDS): 44879

Country: TO BE DETERMINED/UNKNOWN (TBD)

Current information (Y/N): Y

RCS size: MEDIUM

Orbital parameters

Period: 96.375 minutes

Inclination: 97.7955 deg

SMA: 6963.107 km

Apoapsis: 592.343 km

Periapsis: 577.601 km

RAAN: 66.5186 deg

Eccentricy: 0.00105854

Argument of periapsis: 322.4787 deg

Mean anomaly: 37.5693 deg

Mean motion: 14.9416354 rev/day

Mean motion (dot): 0.00006507 rev/day2

B* drag term: 0.00061236857 1/REarth

Two-line elements (TLE)

Creation date: Dec. 12, 2025, 10:14 a.m.

Reference frame: TEME

Reference center: EARTH

Epoch: Dec. 12, 2025, 6:27 a.m. UTC

TLE line 0: 0 OBJECT A

TLE line 1: 1 44879U 19093A 25346.26899190 .00006507 00000-0 61237-3 0 9998

TLE line 2: 2 44879 97.7955 66.5186 0010585 322.4787 37.5693 14.94163540324122

Live tracking on map

Real-time ground track for satellite OBJECT A.

In-orbit conjunctions

There are no conjunctions computed for OBJECT A, at the moment. Check back to stay up to date, as we update our databases every day.

Go to all conjunctions

Associated space launch

On April 24, 2015, China and Brazil have signed the agreement for the construction of CBERS-4A. It's a third satellite in the continuity to the CBERS program, and a sixth CBERS satellite to be constructed. The CBERS satellites enhance and complement the existing remote sensing systems in an effort to improve our knowledge about the Earth environment and resources.

OBJECT A was lifted into orbit during the mission ‘Long March 4B | CBERS-4A’, on board a Long March 4B space rocket.

The launch took place on Dec. 20, 2019, 3:22 a.m. from Launch Complex 9.

For more information about the launch, click the button.

Launch to space Long March 4B | CBERS-4A
Long March 4B | CBERS-4A

Agency: N/A

Status: Launch Successful

Launch date: Dec. 20, 2019, 3:22 a.m. UTC

Rocket: Long March 4B

Launch pad: Launch Complex 9

Location: Taiyuan Satellite Launch Center, People's Republic of China

...

Latest news about this satellite

News about space launch
Long March 4B lofts CBERS-04A and Ethiopia’s first satellite


Newsletter sign-up

Weekly statistics, charts and insights to help you stay on top of the space industry.